Location: Arroyo de Valdeoliva
(40.1604°N, 4.9878°W)
Time: 12:07:55
(UTC+00:00)

Tiangong - Pass Details

Date: 18 February 2026
Orbit: 381 x 391 km, 41.5° (Epoch: 8 March)

Event Time Altitude Azimuth Distance (km) Brightness Sun altitude
Rises 18:45:11 0° 280° (W) 2,257 3.4 -9.5°
Reaches altitude 10° 18:47:16 10° 282° (WNW) 1,401 2.0 -9.9°
Maximum altitude 18:50:25 78° 9° (N) 393 -2.2 -10.5°
Enters shadow 18:52:41 17° 95° (E) 1,041 -0.6 -10.9°
